bei-jing , China , ASIA

  • Saturday
    January 20

    Overcast  Overcast

    37 °F  21 °F

    Southeast  Southeast

        

  • Sunday
    January 21

    Overcast  Overcast

    32 °F  23 °F

    Northeast  East

        

  • Monday
    January 22

    Overcast  Cloudy

    28 °F  16 °F

    East  North

       3~4L 

  • Tuesday
    January 23

    Sunny  Sunny

    25 °F  14 °F

    Northwest  Southwest

        

  • Wednesday
    January 24

    Sunny  Sunny

    25 °F  12 °F

    Southeast  Northeast

        

  • Thursday
    January 25

    Cloudy  Cloudy

    25 °F  16 °F

    Northeast  South

        

  • Friday
    January 26

    Cloudy  Cloudy

    28 °F  18 °F

    Southwest  North

        

Date   Weather Temperature Humidity Total_rain Visibility Wind
11:00 Overcast 30°F 69.2% 0mm 0.8km Northeast  2.3m/s
14:00 Overcast 37°F 61.9% 0mm 8km Southeast  2.2m/s
17:00 Overcast 31°F 73.1% 0mm 0.8km Southeast  1.3m/s
20:00 Overcast 29°F 78.7% 0mm 4km Northeast  0.6m/s
23:00 Overcast 24°F 81% 0mm 4km Northeast  1.7m/s
02:00 Overcast 24°F 81.4% 0mm 0.4km Northeast  1.7m/s
05:00 Overcast 23°F 81.9% 0mm 4km Northeast  1.4m/s
08:00 Overcast 22°F 58.4% 0mm 0.8km Northeast  1.7m/s
11:00 Overcast 29°F 72.3% 0mm 8km Northeast  1.8m/s
14:00 Overcast 32°F 63.5% 0mm 0.4km Northwest  2.1m/s
17:00 Overcast 30°F 67.1% 0mm 4km Northeast  1.9m/s
20:00 Overcast 29°F 67.9% 0mm 4km Northeast  1.1m/s
23:00 Overcast 25°F 68.8% 0mm 4km Northeast  2.2m/s
02:00 Overcast 26°F 66.2% 0mm 4km Northeast  2.1m/s
05:00 Overcast 23°F 61.6% 0mm 8km Northeast  3.1m/s
08:00 Overcast 24°F 60.1% 0mm 12km Northeast  4.3m/s
11:00 Overcast 28°F 27.7% 0mm 0.4km Northeast  4.9m/s
14:00 Overcast 28°F 29.4% 0mm 12km Northwest  5.1m/s
17:00 Overcast 27°F 31.1% 0mm 12km Northwest  4.7m/s
20:00 Overcast 24°F 34.5% 0mm 12km Northwest  2.9m/s
23:00 Cloudy 20°F 43.7% 0mm 12km Northwest  2.4m/s
02:00 Cloudy 19°F 41.1% 0mm 12km Northwest  3.7m/s
05:00 Cloudy 16°F 39.4% 0mm 12km Northwest  2.4m/s
08:00 Cloudy 18°F 37.7% 0mm 12km Northwest  3.9m/s
11:00 Sunny 20°F 23.3% 0mm 12km Northwest  3.8m/s
14:00 Sunny 24°F 29.3% 0mm 12km Northwest  3.8m/s
17:00 Sunny 23°F 37.2% 0mm 12km Southwest  3.5m/s
20:00 Sunny 23°F 37.2% 0mm 12km Northwest  2.3m/s
23:00 Sunny 18°F 42.6% 0mm 12km Northeast  1.6m/s
02:00 Sunny 16°F 36.8% 0mm 12km Northeast  2.2m/s
05:00 Sunny 14°F 40.2% 0mm 12km North  1.6m/s
08:00 Sunny 15°F 27.3% 0mm 12km Northwest  1.3m/s
11:00 Sunny 19°F 27.8% 0mm 12km Southwest  3.2m/s
14:00 Sunny 24°F 43.2% 0mm 12km Southwest  3.8m/s
17:00 Sunny 24°F 42.3% 0mm 8km Southwest  2.6m/s
20:00 Sunny 19°F 41.4% 0mm 12km Southwest  1.9m/s
23:00 Sunny 17°F 28.4% 0mm 4km Northwest  1.4m/s
02:00 Sunny 13°F 60.8% 0mm 8km Northwest  1.2m/s
05:00 Sunny 13°F 31.8% 0mm 12km Northeast  1.2m/s
08:00 Sunny 13°F 23% 0mm 12km Northeast  0.7m/s
11:00 Cloudy 23°F 36.5% 0mm 8km Southeast  2.5m/s
14:00 Cloudy 24°F 49.1% 0mm 12km Southeast  2.2m/s
17:00 Cloudy 24°F 48.5% 0mm 8km Southeast  1.9m/s
20:00 Cloudy 22°F 50% 0mm 4km Southeast  1.6m/s
23:00 Cloudy 20°F 51.6% 0mm 4km Southeast  1.3m/s
02:00 Cloudy 17°F 76.2% 0mm 4km Southeast  1.8m/s
05:00 Cloudy 17°F 55.2% 0mm 4km Northeast  1.3m/s
08:00 Cloudy 16°F 44.1% 0mm 4km Southeast  1.7m/s
11:00 Cloudy 21°F 46.3% 0mm 0.8km Southeast  1.9m/s
14:00 Cloudy 28°F 54.5% 0mm 12km Southwest  1.8m/s
17:00 Cloudy 26°F 53.7% 0mm 4km Southeast  2.3m/s
20:00 Cloudy 23°F 55.5% 0mm 4km Northwest  1.0m/s
23:00 Cloudy 19°F 57.4% 0mm 4km Northeast  1.6m/s
02:00 Cloudy 19°F 59.6% 0mm 4km Northeast  1.4m/s
05:00 Cloudy 18°F 61.2% 0mm 0.4km Northwest  1.5m/s
OtherMore